MOZHAYETS 4 (RS-22)

Last updated on Wed Sep 17 2025 00:03:09 GMT+0000 (Coordinated Universal Time)

1 27939U 03042A 25259.61421392 .00001080 00000+0 17797-3 0 9992 2 27939 98.3368 71.5262 0012393 59.4191 14.6702 14.72587313175272
UTC large
Height (km)
Speed (km/s)
/
Latitude / Longitude
Inclination (degrees)
Orbital Period (minutes)
Azimuth
Elevation
Range (km)
Doppler Factor

Next 0 passes for location: London (51.5072 / 0.1276)

Sorry there are no passes over London.